Location: Praha
(50.0830°N, 14.4670°E)
Time: 05:08:38
(UTC+02:00)

ISS - Pass Details

Date: 21 May 2021
Orbit: 417 x 422 km, 51.6° (Epoch: 13 June)

Event Time Altitude Azimuth Distance (km) Brightness Sun altitude
Rises 22:07:42 0° 269° (W) 2,363 0.7 -10.1°
Reaches altitude 10° 22:09:49 10° 272° (W) 1,501 -0.3 -10.3°
Maximum altitude 22:13:10 66° 355° (N) 462 -3.4 -10.6°
Drops below altitude 10° 22:16:32 10° 79° (E) 1,505 -1.2 -11.0°
Enters shadow 22:18:15 - 82° (E) 2,208 -0.4 -11.1°
